Groton, CT

7:31 AM EDT on April 25, 2017 (GMT -0400)
Groton-New London

Weather History for KGON - January, 2014

Change the Weather History Date:

Sunday, January 5, 2014

  Actual Average Record
Temperature  
Mean Temperature 30 °F -  
Max Temperature 48 °F 38 °F 58 °F (1993)
Min Temperature 12 °F 21 °F -3 °F (1981)
Degree Days  
Heating Degree Days 35    
Moisture  
Dew Point 32 °F    
Average Humidity 93    
Maximum Humidity 100    
Minimum Humidity 78    
Precipitation  
Precipitation 0.03 in - - ()
Sea Level Pressure  
Sea Level Pressure 30.18 in    
Wind  
Wind Speed 5 mph (ENE)    
Max Wind Speed 21 mph    
Max Gust Speed 26 mph    
Visibility 4 miles    
Events Fog , Rain    
Averages and records for this station are not official NWS values.
T = Trace of Precipitation, MM = Missing Value Source: NWS Daily Summary

Daily Weather History Graph

Daily Weather History Graph

Search for Another Location

Airport or City:

Trip Planner

Search our weather history database for the weather conditions in past years. The results will help you decide how hot, cold, wet, or windy it might be!

Date:

Astronomy

Jan. 05, 2014 Rise Set
Actual Time 7:14 AM EST 4:33 PM EST
Civil Twilight 6:43 AM EST 5:04 PM EST
Nautical Twilight 6:08 AM EST 5:38 PM EST
Astronomical Twilight 5:35 AM EST 6:12 PM EST
Moon 9:50 AM EST (1/5) 10:01 PM EST (1/5)
Length of Visible Light 10h 21m
Length of Day
9h 19m
Waxing Crescent, 24% of the Moon is Illuminated
Jan 5
Waxing Crescent
Jan 7
First Quarter
Jan 15
Full
Jan 24
Last Quarter
Jan 30
New

Hourly Weather History & Observations

Time (EST) Temp. Windchill Dew Point Humidity Pressure Visibility Wind Dir Wind Speed Gust Speed Precip Events Conditions
12:56 AM 25.0 °F 18.1 °F 19.0 °F 78% 30.29 in 9.0 mi NNW 5.8 mph - N/A   Clear
1:56 AM 19.9 °F - 16.0 °F 85% 30.29 in 9.0 mi Calm Calm - N/A   Clear
2:56 AM 17.1 °F 11.7 °F 15.1 °F 92% 30.31 in 9.0 mi NNE 3.5 mph - N/A   Clear
3:56 AM 16.0 °F - 12.9 °F 88% 30.30 in 8.0 mi Calm Calm - N/A   Clear
4:56 AM 12.9 °F - 12.0 °F 96% 30.29 in 8.0 mi Calm Calm - N/A   Clear
5:56 AM 14.0 °F 8.2 °F 10.9 °F 88% 30.30 in 8.0 mi NE 3.5 mph - N/A   Clear
6:56 AM 12.9 °F 6.9 °F 10.9 °F 92% 30.32 in 8.0 mi North 3.5 mph - N/A   Clear
7:56 AM 15.1 °F 9.4 °F 12.9 °F 91% 30.32 in 6.0 mi NNE 3.5 mph - N/A   Mostly Cloudy
8:56 AM 21.9 °F - 19.0 °F 89% 30.34 in 6.0 mi Calm Calm - N/A   Overcast
9:48 AM 26.6 °F - 21.2 °F 80% 30.34 in 6.0 mi Calm Calm - N/A   Overcast
9:56 AM 25.0 °F 20.7 °F 21.9 °F 88% 30.35 in 6.0 mi ENE 3.5 mph - N/A   Overcast
10:21 AM 26.6 °F - 24.8 °F 93% 30.35 in 2.0 mi Calm Calm - 0.00 in   Overcast
10:56 AM 28.9 °F 25.2 °F 27.0 °F 92% 30.32 in 3.0 mi NNE 3.5 mph - 0.00 in   Overcast
11:49 AM 30.2 °F - 28.4 °F 93% 30.28 in 1.8 mi Calm Calm - 0.00 in   Overcast
11:56 AM 30.9 °F 27.5 °F 28.9 °F 92% 30.28 in 1.8 mi NNE 3.5 mph - 0.00 in   Overcast
12:04 PM 30.2 °F - 28.4 °F 93% 30.28 in 2.0 mi Calm Calm - 0.00 in   Overcast
12:56 PM 33.1 °F 30.0 °F 30.9 °F 92% 30.25 in 2.0 mi ENE 3.5 mph - 0.00 in Rain Light Rain
1:03 PM 32.0 °F 27.5 °F 30.2 °F 93% 30.25 in 1.0 mi NE 4.6 mph - 0.00 in Rain Light Rain
1:56 PM 34.0 °F 31.0 °F 32.0 °F 92% 30.25 in 2.0 mi North 3.5 mph - 0.00 in Rain Light Rain
2:11 PM 33.8 °F 30.8 °F 33.8 °F 100% 30.24 in 3.0 mi NNE 3.5 mph - 0.00 in   Overcast
2:23 PM 35.6 °F 32.8 °F 33.8 °F 93% 30.24 in 2.0 mi North 3.5 mph - 0.00 in Rain Light Rain
2:40 PM 35.6 °F - 33.8 °F 93% 30.22 in 1.8 mi Calm Calm - 0.00 in   Overcast
2:47 PM 35.6 °F - 33.8 °F 93% 30.22 in 3.0 mi Calm Calm - 0.00 in   Overcast
2:56 PM 35.1 °F - 34.0 °F 96% 30.22 in 3.0 mi Calm Calm - 0.00 in   Overcast
3:56 PM 36.0 °F 33.3 °F 34.0 °F 93% 30.21 in 3.0 mi NE 3.5 mph - N/A   Overcast
4:56 PM 36.0 °F 32.1 °F 35.1 °F 97% 30.19 in 5.0 mi NE 4.6 mph - N/A   Overcast
5:56 PM 37.0 °F 34.5 °F 35.1 °F 93% 30.17 in 7.0 mi Variable 3.5 mph - N/A   Overcast
6:34 PM 37.4 °F 31.4 °F 35.6 °F 93% 30.14 in 7.0 mi East 8.1 mph - N/A   Overcast
6:56 PM 39.0 °F 32.3 °F 36.0 °F 89% 30.13 in 7.0 mi East 10.4 mph - N/A   Overcast
7:32 PM 41.0 °F 34.3 °F 39.2 °F 93% 30.10 in 7.0 mi East 11.5 mph - N/A   Overcast
7:56 PM 42.1 °F 35.7 °F 41.0 °F 96% 30.09 in 6.0 mi East 11.5 mph - N/A   Mostly Cloudy
8:56 PM 45.0 °F 39.3 °F 43.0 °F 93% 30.04 in 6.0 mi East 11.5 mph - N/A   Overcast
9:18 PM 46.4 °F 41.1 °F 44.6 °F 93% 30.03 in 6.0 mi ESE 11.5 mph - N/A   Overcast
9:36 PM 44.6 °F 39.2 °F 44.6 °F 100% 30.01 in 4.0 mi ESE 10.4 mph - 0.00 in Rain Light Rain
9:46 PM 46.4 °F 41.9 °F 44.6 °F 93% 30.01 in 4.0 mi ESE 9.2 mph - 0.00 in Rain Light Rain
9:56 PM 46.0 °F 41.4 °F 45.0 °F 96% 30.00 in 3.0 mi East 9.2 mph - 0.00 in Rain Light Rain
10:24 PM 46.4 °F 41.1 °F 44.6 °F 93% 29.97 in 1.8 mi ESE 11.5 mph - 0.02 in Rain Rain
10:42 PM 46.4 °F 40.4 °F 46.4 °F 100% 29.95 in 2.0 mi ESE 13.8 mph - 0.03 in   Overcast
10:47 PM 46.4 °F 40.7 °F 46.4 °F 100% 29.94 in 0.8 mi SE 12.7 mph - 0.03 in   Overcast
10:56 PM 46.9 °F - 46.0 °F 97% 29.93 in 0.2 mi SSE 17.3 mph 20.7 mph 0.03 in Fog Fog
11:17 PM 48.2 °F - 48.2 °F 100% 29.90 in 0.5 mi SE 20.7 mph 26.5 mph N/A Fog Fog
11:56 PM 48.0 °F - 48.0 °F 100% 29.86 in 0.5 mi SE 20.7 mph - N/A Fog Fog